Location: Caltech
(34.1382°N, 118.1253°W)
Time: 04:33:43
(UTC-07:00)

Iridium 18 - Visible Passes

Search period start: 02 September 2014 00:00
Search period end: 12 September 2014 00:00
Orbit: 776 x 779 km, 86.4° (Epoch: 01 September)

Date Brightness Start Highest point End Pass type
(mag) Time Alt. Az. Time Alt. Az. Time Alt. Az.
02 Sep 8.3 20:44:39 10° NW 20:48:19 20° W 20:51:58 10° SW visible
03 Sep 7.2 20:10:15 10° NNW 20:15:01 38° W 20:19:46 10° SSW visible
04 Sep 5.8 19:36:25 10° N 19:41:37 75° W 19:46:47 10° S visible
05 Sep 8.7 20:45:54 10° NW 20:48:13 13° W 20:50:31 10° WSW visible
06 Sep 8.0 20:10:47 10° NNW 20:14:59 25° W 20:19:11 10° SW visible
07 Sep 6.7 19:36:39 10° NNW 19:41:39 49° W 19:46:38 10° SSW visible
09 Sep 8.6 20:11:37 10° NW 20:14:55 17° W 20:18:12 10° WSW visible
10 Sep 7.6 19:37:02 10° NNW 19:41:39 33° W 19:46:15 10° SSW visible
